Time,TemperatureF,DewpointF,PressureIn,WindDirection,WindDirectionDegrees,WindSpeedMPH,WindSpeedGustMPH,Humidity,HourlyPrecipIn,Conditions,Clouds,dailyrainin,SolarRadiationWatts/m^2,SoftwareType,DateUTC
2013-04-15 00:03:00,36.0,26.0,-100.00,ESE,113,8.0,11.0,67,0.00,,,0.00,0.000000,,2013-04-15 04:03:00,
2013-04-15 00:13:00,36.0,26.0,-100.00,ESE,113,8.0,11.0,67,0.00,,,0.00,0.000000,,2013-04-15 04:13:00,
2013-04-15 00:23:00,36.0,26.0,-100.00,ESE,113,8.0,11.0,67,0.00,,,0.00,0.000000,,2013-04-15 04:23:00,
2013-04-15 00:53:00,37.0,25.0,-100.00,ESE,106,6.0,11.0,62,0.00,,,0.00,0.000000,,2013-04-15 04:53:00,
2013-04-15 01:03:00,37.0,25.0,-100.00,ESE,106,6.0,11.0,62,0.00,,,0.00,0.000000,,2013-04-15 05:03:00,
2013-04-15 01:13:00,37.0,25.0,-100.00,ESE,106,6.0,11.0,62,0.00,,,0.00,0.000000,,2013-04-15 05:13:00,
2013-04-15 01:23:00,37.0,25.0,-100.00,ESE,106,6.0,11.0,62,0.00,,,0.00,0.000000,,2013-04-15 05:23:00,
2013-04-15 01:53:00,37.0,25.0,-100.00,ESE,104,7.0,13.0,61,0.00,,,0.00,0.000000,,2013-04-15 05:53:00,
2013-04-15 02:02:00,37.0,25.0,-100.00,ESE,104,7.0,13.0,61,0.00,,,0.00,0.000000,,2013-04-15 06:02:00,
2013-04-15 02:12:00,37.0,25.0,-100.00,ESE,104,7.0,13.0,61,0.00,,,0.00,0.000000,,2013-04-15 06:12:00,
2013-04-15 02:23:00,37.0,25.0,-100.00,ESE,104,7.0,13.0,61,0.00,,,0.00,0.000000,,2013-04-15 06:23:00,
2013-04-15 02:25:00,37.0,26.0,-100.00,ESE,115,9.0,16.0,63,0.00,,,0.00,0.000000,,2013-04-15 06:25:00,
2013-04-15 02:53:00,37.0,26.0,-100.00,ESE,115,9.0,16.0,63,0.00,,,0.00,0.000000,,2013-04-15 06:53:00,
2013-04-15 03:03:00,37.0,26.0,-100.00,ESE,115,9.0,16.0,63,0.00,,,0.00,0.000000,,2013-04-15 07:03:00,
2013-04-15 03:54:00,37.0,25.0,-100.00,ESE,112,10.0,17.0,62,0.00,,,0.00,0.000000,,2013-04-15 07:54:00,
2013-04-15 04:03:00,37.0,25.0,-100.00,ESE,112,10.0,17.0,62,0.00,,,0.00,0.000000,,2013-04-15 08:03:00,
2013-04-15 04:14:00,37.0,25.0,-100.00,ESE,112,10.0,17.0,62,0.00,,,0.00,0.000000,,2013-04-15 08:14:00,
2013-04-15 04:22:00,37.0,25.0,-100.00,ESE,112,10.0,17.0,62,0.00,,,0.00,0.000000,,2013-04-15 08:22:00,
2013-04-15 04:52:00,37.0,26.0,-100.00,ESE,110,7.0,16.0,63,0.00,,,0.00,0.000000,,2013-04-15 08:52:00,
2013-04-15 05:03:00,37.0,26.0,-100.00,ESE,110,7.0,16.0,63,0.00,,,0.00,0.000000,,2013-04-15 09:03:00,
2013-04-15 05:13:00,37.0,26.0,-100.00,ESE,110,7.0,16.0,63,0.00,,,0.00,0.000000,,2013-04-15 09:13:00,
2013-04-15 05:23:00,37.0,26.0,-100.00,ESE,110,7.0,16.0,63,0.00,,,0.00,0.000000,,2013-04-15 09:23:00,
2013-04-15 05:53:00,37.0,26.0,-100.00,ESE,112,7.0,13.0,65,0.00,,,0.00,0.000000,,2013-04-15 09:53:00,
2013-04-15 06:03:00,37.0,26.0,-100.00,ESE,112,7.0,13.0,65,0.00,,,0.00,0.000000,,2013-04-15 10:03:00,
2013-04-15 06:13:00,37.0,26.0,-100.00,ESE,112,7.0,13.0,65,0.00,,,0.00,0.000000,,2013-04-15 10:13:00,
2013-04-15 06:23:00,37.0,26.0,-100.00,ESE,112,7.0,13.0,65,0.00,,,0.00,0.000000,,2013-04-15 10:23:00,
2013-04-15 06:53:00,37.0,27.0,-100.00,ESE,105,6.0,12.0,67,0.00,,,0.00,0.000000,,2013-04-15 10:53:00,
2013-04-15 07:03:00,37.0,27.0,-100.00,ESE,105,6.0,12.0,67,0.00,,,0.00,0.000000,,2013-04-15 11:03:00,
2013-04-15 07:13:00,37.0,27.0,-100.00,ESE,105,6.0,12.0,67,0.00,,,0.00,0.000000,,2013-04-15 11:13:00,
2013-04-15 07:23:00,37.0,27.0,-100.00,ESE,105,6.0,12.0,67,0.00,,,0.00,0.000000,,2013-04-15 11:23:00,
2013-04-15 07:54:00,38.0,28.0,-100.00,ESE,108,9.0,17.0,67,0.00,,,0.00,13.000000,,2013-04-15 11:54:00,
2013-04-15 08:05:00,38.0,28.0,-100.00,ESE,108,9.0,17.0,67,0.00,,,0.00,13.000000,,2013-04-15 12:05:00,
2013-04-15 08:14:00,38.0,28.0,-100.00,ESE,108,9.0,17.0,67,0.00,,,0.00,13.000000,,2013-04-15 12:14:00,
2013-04-15 08:23:00,38.0,28.0,-100.00,ESE,108,9.0,17.0,67,0.00,,,0.00,13.000000,,2013-04-15 12:23:00,
2013-04-15 08:54:00,40.0,29.0,-100.00,ESE,114,9.0,16.0,65,0.00,,,0.00,72.000000,,2013-04-15 12:54:00,
2013-04-15 09:05:00,40.0,29.0,-100.00,ESE,114,9.0,16.0,65,0.00,,,0.00,72.000000,,2013-04-15 13:05:00,
2013-04-15 09:13:00,40.0,29.0,-100.00,ESE,114,9.0,16.0,65,0.00,,,0.00,72.000000,,2013-04-15 13:13:00,
2013-04-15 09:23:00,40.0,29.0,-100.00,ESE,114,9.0,16.0,65,0.00,,,0.00,72.000000,,2013-04-15 13:23:00,
2013-04-15 09:54:00,46.0,32.0,-100.00,ESE,118,10.0,16.0,59,0.00,,,0.00,319.000000,,2013-04-15 13:54:00,
2013-04-15 10:05:00,46.0,32.0,-100.00,ESE,118,10.0,16.0,59,0.00,,,0.00,319.000000,,2013-04-15 14:05:00,
2013-04-15 10:13:00,46.0,32.0,-100.00,ESE,118,10.0,16.0,59,0.00,,,0.00,319.000000,,2013-04-15 14:13:00,
2013-04-15 10:23:00,46.0,32.0,-100.00,ESE,118,10.0,16.0,59,0.00,,,0.00,319.000000,,2013-04-15 14:23:00,
2013-04-15 10:55:00,53.0,36.0,-100.00,ESE,112,6.0,11.0,52,0.00,,,0.00,490.000000,,2013-04-15 14:55:00,
2013-04-15 11:04:00,53.0,36.0,-100.00,ESE,112,6.0,11.0,52,0.00,,,0.00,490.000000,,2013-04-15 15:04:00,
2013-04-15 11:13:00,53.0,36.0,-100.00,ESE,112,6.0,11.0,52,0.00,,,0.00,490.000000,,2013-04-15 15:13:00,
2013-04-15 11:24:00,53.0,36.0,-100.00,ESE,112,6.0,11.0,52,0.00,,,0.00,490.000000,,2013-04-15 15:24:00,
2013-04-15 11:25:00,60.0,38.0,-100.00,NE,47,4.0,10.0,44,0.00,,,0.00,619.000000,,2013-04-15 15:25:00,
2013-04-15 11:55:00,60.0,38.0,-100.00,NE,47,4.0,10.0,44,0.00,,,0.00,619.000000,,2013-04-15 15:55:00,
2013-04-15 12:05:00,60.0,38.0,-100.00,NE,47,4.0,10.0,44,0.00,,,0.00,619.000000,,2013-04-15 16:05:00,
2013-04-15 12:14:00,60.0,38.0,-100.00,NE,47,4.0,10.0,44,0.00,,,0.00,619.000000,,2013-04-15 16:14:00,
2013-04-15 12:54:00,69.0,42.0,-100.00,West,262,8.0,15.0,38,0.00,,,0.00,724.000000,,2013-04-15 16:54:00,
2013-04-15 13:04:00,69.0,42.0,-100.00,West,262,8.0,15.0,38,0.00,,,0.00,724.000000,,2013-04-15 17:04:00,
2013-04-15 13:15:00,69.0,42.0,-100.00,West,262,8.0,15.0,38,0.00,,,0.00,724.000000,,2013-04-15 17:15:00,
2013-04-15 13:22:00,69.0,42.0,-100.00,West,262,8.0,15.0,38,0.00,,,0.00,724.000000,,2013-04-15 17:22:00,
2013-04-15 13:53:00,71.0,41.0,-100.00,WSW,255,8.0,14.0,34,0.00,,,0.00,684.000000,,2013-04-15 17:53:00,
2013-04-15 14:04:00,71.0,41.0,-100.00,WSW,255,8.0,14.0,34,0.00,,,0.00,684.000000,,2013-04-15 18:04:00,
2013-04-15 14:13:00,71.0,41.0,-100.00,WSW,255,8.0,14.0,34,0.00,,,0.00,684.000000,,2013-04-15 18:13:00,
2013-04-15 14:24:00,71.0,41.0,-100.00,WSW,255,8.0,14.0,34,0.00,,,0.00,684.000000,,2013-04-15 18:24:00,
2013-04-15 14:52:00,71.0,43.0,-100.00,West,264,10.0,21.0,36,0.00,,,0.00,455.000000,,2013-04-15 18:52:00,
2013-04-15 15:02:00,71.0,43.0,-100.00,West,264,10.0,21.0,36,0.00,,,0.00,455.000000,,2013-04-15 19:02:00,
2013-04-15 15:12:00,71.0,43.0,-100.00,West,264,10.0,21.0,36,0.00,,,0.00,455.000000,,2013-04-15 19:12:00,
2013-04-15 15:22:00,71.0,43.0,-100.00,West,264,10.0,21.0,36,0.00,,,0.00,455.000000,,2013-04-15 19:22:00,
2013-04-15 16:02:00,73.0,43.0,-100.00,WNW,289,7.0,14.0,34,0.00,,,0.00,556.000000,,2013-04-15 20:02:00,
2013-04-15 16:12:00,73.0,43.0,-100.00,WNW,289,7.0,14.0,34,0.00,,,0.00,556.000000,,2013-04-15 20:12:00,
2013-04-15 16:22:00,73.0,43.0,-100.00,WNW,289,7.0,14.0,34,0.00,,,0.00,556.000000,,2013-04-15 20:22:00,
2013-04-15 16:52:00,68.0,44.0,-100.00,NE,41,6.0,14.0,42,0.00,,,0.00,527.000000,,2013-04-15 20:52:00,
2013-04-15 17:02:00,68.0,44.0,-100.00,NE,41,6.0,14.0,42,0.00,,,0.00,527.000000,,2013-04-15 21:02:00,
2013-04-15 17:12:00,68.0,44.0,-100.00,NE,41,6.0,14.0,42,0.00,,,0.00,527.000000,,2013-04-15 21:12:00,
2013-04-15 17:22:00,68.0,44.0,-100.00,NE,41,6.0,14.0,42,0.00,,,0.00,527.000000,,2013-04-15 21:22:00,
2013-04-15 17:53:00,68.0,44.0,-100.00,ENE,57,8.0,12.0,42,0.00,,,0.00,423.000000,,2013-04-15 21:53:00,
2013-04-15 18:02:00,68.0,44.0,-100.00,ENE,57,8.0,12.0,42,0.00,,,0.00,423.000000,,2013-04-15 22:02:00,
2013-04-15 18:13:00,68.0,44.0,-100.00,ENE,57,8.0,12.0,42,0.00,,,0.00,423.000000,,2013-04-15 22:13:00,
2013-04-15 18:23:00,68.0,44.0,-100.00,ENE,57,8.0,12.0,42,0.00,,,0.00,423.000000,,2013-04-15 22:23:00,
2013-04-15 18:52:00,66.0,45.0,-100.00,North,3,4.0,12.0,46,0.00,,,0.00,168.000000,,2013-04-15 22:52:00,
2013-04-15 19:02:00,66.0,45.0,-100.00,North,3,4.0,12.0,46,0.00,,,0.00,168.000000,,2013-04-15 23:02:00,
2013-04-15 19:12:00,66.0,45.0,-100.00,North,3,4.0,12.0,46,0.00,,,0.00,168.000000,,2013-04-15 23:12:00,
2013-04-15 19:22:00,66.0,45.0,-100.00,North,3,4.0,12.0,46,0.00,,,0.00,168.000000,,2013-04-15 23:22:00,
2013-04-15 19:52:00,67.0,44.0,-100.00,SSW,207,5.0,13.0,44,0.00,,,0.00,53.000000,,2013-04-15 23:52:00,
2013-04-15 20:03:00,67.0,44.0,-100.00,SSW,207,5.0,13.0,44,0.00,,,0.00,53.000000,,2013-04-16 00:03:00,
2013-04-15 20:12:00,67.0,44.0,-100.00,SSW,207,5.0,13.0,44,0.00,,,0.00,53.000000,,2013-04-16 00:12:00,
2013-04-15 20:22:00,67.0,44.0,-100.00,SSW,207,5.0,13.0,44,0.00,,,0.00,53.000000,,2013-04-16 00:22:00,
2013-04-15 20:52:00,63.0,44.0,-100.00,SSW,196,3.0,17.0,50,0.00,,,0.00,5.000000,,2013-04-16 00:52:00,
2013-04-15 21:02:00,63.0,44.0,-100.00,SSW,196,3.0,17.0,50,0.00,,,0.00,5.000000,,2013-04-16 01:02:00,
2013-04-15 21:12:00,63.0,44.0,-100.00,SSW,196,3.0,17.0,50,0.00,,,0.00,5.000000,,2013-04-16 01:12:00,
2013-04-15 21:22:00,63.0,44.0,-100.00,SSW,196,3.0,17.0,50,0.00,,,0.00,5.000000,,2013-04-16 01:22:00,
2013-04-15 21:52:00,60.0,45.0,-100.00,SSW,209,3.0,8.0,57,0.00,,,-99.99,0.000000,,2013-04-16 01:52:00,
2013-04-15 22:02:00,60.0,45.0,-100.00,SSW,209,3.0,8.0,57,0.00,,,-99.99,0.000000,,2013-04-16 02:02:00,
2013-04-15 22:12:00,60.0,45.0,-100.00,SSW,209,3.0,8.0,57,0.00,,,-99.99,0.000000,,2013-04-16 02:12:00,
2013-04-15 22:22:00,60.0,45.0,-100.00,SSW,209,3.0,8.0,57,0.00,,,-99.99,0.000000,,2013-04-16 02:22:00,
2013-04-15 22:52:00,60.0,45.0,-100.00,SSW,199,4.0,11.0,57,0.00,,,0.00,0.000000,,2013-04-16 02:52:00,
2013-04-15 23:02:00,60.0,45.0,-100.00,SSW,199,4.0,11.0,57,0.00,,,0.00,0.000000,,2013-04-16 03:02:00,
2013-04-15 23:12:00,60.0,45.0,-100.00,SSW,199,4.0,11.0,57,0.00,,,0.00,0.000000,,2013-04-16 03:12:00,
2013-04-15 23:22:00,60.0,45.0,-100.00,SSW,199,4.0,11.0,57,0.00,,,0.00,0.000000,,2013-04-16 03:22:00,
2013-04-15 23:53:00,59.0,44.0,-100.00,South,188,3.0,10.0,58,0.00,,,0.00,0.000000,,2013-04-16 03:53:00,